Time,TemperatureF,DewpointF,PressureIn,WindDirection,WindDirectionDegrees,WindSpeedMPH,WindSpeedGustMPH,Humidity,HourlyPrecipIn,Conditions,Clouds,dailyrainin,SoftwareType,DateUTC
2013-02-26 00:00:00,28.6,18.4,29.90,ESE,113,0.0,0.0,65,0.00,,,0.00,WUHU216HW,2013-02-26 05:00:00,
2013-02-26 00:05:00,28.6,18.4,29.90,ESE,113,0.0,0.0,65,0.00,,,0.00,WUHU216HW,2013-02-26 05:05:00,
2013-02-26 00:10:00,28.4,18.5,29.90,ESE,113,0.0,0.0,66,0.00,,,0.00,WUHU216HW,2013-02-26 05:10:00,
2013-02-26 00:15:00,28.4,18.5,29.90,ESE,113,0.0,0.0,66,0.00,,,0.00,WUHU216HW,2013-02-26 05:15:00,
2013-02-26 00:20:00,28.4,18.5,29.90,ESE,113,0.0,0.0,66,0.00,,,0.00,WUHU216HW,2013-02-26 05:20:00,
2013-02-26 00:25:00,28.6,18.7,29.91,ESE,113,0.0,0.4,66,0.00,,,0.00,WUHU216HW,2013-02-26 05:25:00,
2013-02-26 00:30:00,28.6,19.1,29.91,ESE,113,0.2,0.4,67,0.00,,,0.00,WUHU216HW,2013-02-26 05:30:00,
2013-02-26 00:35:00,29.0,19.4,29.91,ESE,113,0.4,0.4,67,0.00,,,0.00,WUHU216HW,2013-02-26 05:35:00,
2013-02-26 00:40:00,29.2,19.5,29.91,ESE,113,0.0,0.4,67,0.00,,,0.00,WUHU216HW,2013-02-26 05:40:00,
2013-02-26 00:45:00,29.3,19.7,29.90,ESE,113,0.0,0.4,67,0.00,,,0.00,WUHU216HW,2013-02-26 05:45:00,
2013-02-26 00:50:00,29.5,19.9,29.91,ESE,113,0.7,0.7,67,0.00,,,0.00,WUHU216HW,2013-02-26 05:50:00,
2013-02-26 00:55:00,29.5,19.9,29.91,ESE,113,0.0,0.7,67,0.00,,,0.00,WUHU216HW,2013-02-26 05:55:00,
2013-02-26 01:00:00,29.5,19.9,29.91,ESE,113,0.0,0.7,67,0.00,,,0.00,WUHU216HW,2013-02-26 06:00:00,
2013-02-26 01:05:00,29.3,19.7,29.91,ESE,113,0.0,0.2,67,0.00,,,0.00,WUHU216HW,2013-02-26 06:05:00,
2013-02-26 01:10:00,29.2,19.5,29.91,ESE,113,0.0,0.0,67,0.00,,,0.00,WUHU216HW,2013-02-26 06:10:00,
2013-02-26 01:15:00,29.2,19.5,29.91,ESE,113,0.0,0.0,67,0.00,,,0.00,WUHU216HW,2013-02-26 06:15:00,
2013-02-26 01:20:00,29.2,19.5,29.91,ESE,113,0.0,0.0,67,0.00,,,0.00,WUHU216HW,2013-02-26 06:20:00,
2013-02-26 01:25:00,29.2,19.5,29.91,ESE,113,0.0,0.0,67,0.00,,,0.00,WUHU216HW,2013-02-26 06:25:00,
2013-02-26 01:30:00,29.2,19.5,29.91,ESE,113,0.0,0.0,67,0.00,,,0.00,WUHU216HW,2013-02-26 06:30:00,
2013-02-26 01:35:00,29.2,19.5,29.90,ESE,113,0.0,0.0,67,0.00,,,0.00,WUHU216HW,2013-02-26 06:35:00,
2013-02-26 01:40:00,29.2,19.5,29.90,ESE,113,0.0,0.0,67,0.00,,,0.00,WUHU216HW,2013-02-26 06:40:00,
2013-02-26 01:45:00,29.2,19.9,29.90,ESE,113,0.0,0.0,68,0.00,,,0.00,WUHU216HW,2013-02-26 06:45:00,
2013-02-26 01:50:00,29.0,19.4,29.90,ESE,113,0.0,0.0,67,0.00,,,0.00,WUHU216HW,2013-02-26 06:50:00,
2013-02-26 01:55:00,29.0,19.4,29.91,ESE,113,0.0,0.0,67,0.00,,,0.00,WUHU216HW,2013-02-26 06:55:00,
2013-02-26 02:00:00,28.8,19.3,29.90,ESE,113,0.0,0.0,67,0.00,,,0.00,WUHU216HW,2013-02-26 07:00:00,
2013-02-26 02:05:00,28.8,19.6,29.90,ESE,113,0.0,0.0,68,0.00,,,0.00,WUHU216HW,2013-02-26 07:05:00,
2013-02-26 02:10:00,29.0,19.4,29.90,ESE,113,0.0,0.0,67,0.00,,,0.00,WUHU216HW,2013-02-26 07:10:00,
2013-02-26 02:15:00,29.0,19.4,29.89,ESE,113,0.0,0.0,67,0.00,,,0.00,WUHU216HW,2013-02-26 07:15:00,
2013-02-26 02:20:00,29.0,19.7,29.89,ESE,113,0.0,0.0,68,0.00,,,0.00,WUHU216HW,2013-02-26 07:20:00,
2013-02-26 02:25:00,29.0,19.7,29.89,ESE,113,0.0,0.0,68,0.00,,,0.00,WUHU216HW,2013-02-26 07:25:00,
2013-02-26 02:30:00,29.0,19.7,29.89,NW,315,0.0,1.1,68,0.00,,,0.00,WUHU216HW,2013-02-26 07:30:00,
2013-02-26 02:35:00,29.0,19.7,29.89,NW,315,0.0,1.1,68,0.00,,,0.00,WUHU216HW,2013-02-26 07:35:00,
2013-02-26 02:40:00,29.0,19.7,29.89,NNW,338,0.0,0.4,68,0.00,,,0.00,WUHU216HW,2013-02-26 07:40:00,
2013-02-26 02:45:00,29.0,19.7,29.88,NNW,338,0.0,0.4,68,0.00,,,0.00,WUHU216HW,2013-02-26 07:45:00,
2013-02-26 02:50:00,28.8,20.0,29.88,NNW,338,0.0,0.4,69,0.00,,,0.00,WUHU216HW,2013-02-26 07:50:00,
2013-02-26 02:55:00,29.0,20.1,29.87,NNW,338,0.0,0.4,69,0.00,,,0.00,WUHU216HW,2013-02-26 07:55:00,
2013-02-26 03:00:00,29.0,20.1,29.87,WSW,248,0.0,0.7,69,0.00,,,0.00,WUHU216HW,2013-02-26 08:00:00,
2013-02-26 03:05:00,29.0,20.1,29.87,West,270,0.0,0.7,69,0.00,,,0.00,WUHU216HW,2013-02-26 08:05:00,
2013-02-26 03:10:00,29.0,20.1,29.87,West,270,0.0,0.0,69,0.00,,,0.00,WUHU216HW,2013-02-26 08:10:00,
2013-02-26 03:15:00,29.0,20.1,29.87,West,270,0.0,0.0,69,0.00,,,0.00,WUHU216HW,2013-02-26 08:15:00,
2013-02-26 03:20:00,29.0,20.4,29.87,West,270,0.0,0.0,70,0.00,,,0.00,WUHU216HW,2013-02-26 08:20:00,
2013-02-26 03:25:00,28.8,20.0,29.86,WSW,248,0.0,0.0,69,0.00,,,0.00,WUHU216HW,2013-02-26 08:25:00,
2013-02-26 03:30:00,29.0,20.1,29.86,West,270,0.0,0.0,69,0.00,,,0.00,WUHU216HW,2013-02-26 08:30:00,
2013-02-26 03:35:00,29.0,20.1,29.86,West,270,0.0,0.0,69,0.00,,,0.00,WUHU216HW,2013-02-26 08:35:00,
2013-02-26 03:40:00,29.0,20.1,29.86,NNW,338,0.4,0.9,69,0.00,,,0.00,WUHU216HW,2013-02-26 08:40:00,
2013-02-26 03:45:00,29.2,20.3,29.85,NNW,338,0.2,0.9,69,0.00,,,0.00,WUHU216HW,2013-02-26 08:45:00,
2013-02-26 03:50:00,29.0,20.1,29.86,NNW,338,0.0,0.7,69,0.00,,,0.00,WUHU216HW,2013-02-26 08:50:00,
2013-02-26 03:55:00,29.0,20.1,29.86,SE,135,0.0,1.3,69,0.00,,,0.00,WUHU216HW,2013-02-26 08:55:00,
2013-02-26 04:00:00,28.8,20.4,29.87,SE,135,0.0,1.3,70,0.00,,,0.00,WUHU216HW,2013-02-26 09:00:00,
2013-02-26 04:05:00,28.8,20.4,29.86,SE,135,0.0,0.0,70,0.00,,,0.00,WUHU216HW,2013-02-26 09:05:00,
2013-02-26 04:10:00,28.8,20.4,29.86,SE,135,0.0,0.0,70,0.00,,,0.00,WUHU216HW,2013-02-26 09:10:00,
2013-02-26 04:15:00,29.0,20.4,29.86,NNW,338,0.0,0.7,70,0.00,,,0.00,WUHU216HW,2013-02-26 09:15:00,
2013-02-26 04:20:00,29.2,21.2,29.86,NNE,23,0.0,0.7,72,0.00,,,0.00,WUHU216HW,2013-02-26 09:20:00,
2013-02-26 04:25:00,29.5,21.2,29.86,ESE,113,0.0,0.7,71,0.00,,,0.00,WUHU216HW,2013-02-26 09:25:00,
2013-02-26 04:30:00,29.5,21.0,29.86,NNW,338,0.4,1.1,70,0.00,,,0.00,WUHU216HW,2013-02-26 09:30:00,
2013-02-26 04:35:00,29.9,21.2,29.86,NNW,338,0.0,1.1,70,0.00,,,0.00,WUHU216HW,2013-02-26 09:35:00,
2013-02-26 04:39:00,30.1,21.4,29.86,WNW,293,2.9,2.9,70,0.00,,,0.00,WUHU216HW,2013-02-26 09:39:00,
2013-02-26 04:44:00,30.2,21.6,29.86,North,0,0.4,2.9,70,0.00,,,0.00,WUHU216HW,2013-02-26 09:44:00,
2013-02-26 04:49:00,30.2,21.2,29.86,NNW,338,0.7,2.9,69,0.00,,,0.00,WUHU216HW,2013-02-26 09:49:00,
2013-02-26 04:54:00,30.4,21.4,29.85,NNW,338,0.0,0.7,69,0.00,,,0.00,WUHU216HW,2013-02-26 09:54:00,
2013-02-26 04:59:00,30.6,21.6,29.85,NNW,338,0.0,0.7,69,0.00,,,0.00,WUHU216HW,2013-02-26 09:59:00,
2013-02-26 05:04:00,30.6,21.6,29.85,NE,45,0.7,1.8,69,0.00,,,0.00,WUHU216HW,2013-02-26 10:04:00,
2013-02-26 05:09:00,30.6,21.2,29.85,North,0,0.0,1.8,68,0.00,,,0.00,WUHU216HW,2013-02-26 10:09:00,
2013-02-26 05:14:00,30.8,21.1,29.85,ENE,68,0.0,1.8,67,0.00,,,0.00,WUHU216HW,2013-02-26 10:14:00,
2013-02-26 05:19:00,30.8,21.1,29.85,North,0,0.4,0.4,67,0.00,,,0.00,WUHU216HW,2013-02-26 10:19:00,
2013-02-26 05:24:00,31.0,21.2,29.85,NE,45,0.0,0.7,67,0.00,,,0.00,WUHU216HW,2013-02-26 10:24:00,
2013-02-26 05:29:00,31.0,21.2,29.85,WSW,248,0.4,0.7,67,0.00,,,0.00,WUHU216HW,2013-02-26 10:29:00,
2013-02-26 05:34:00,31.0,20.9,29.85,WNW,293,0.0,1.8,66,0.00,,,0.00,WUHU216HW,2013-02-26 10:34:00,
2013-02-26 05:39:00,31.0,20.9,29.86,WNW,293,0.0,1.8,66,0.00,,,0.00,WUHU216HW,2013-02-26 10:39:00,
2013-02-26 05:44:00,31.1,21.1,29.86,NW,315,0.0,0.9,66,0.00,,,0.00,WUHU216HW,2013-02-26 10:44:00,
2013-02-26 05:49:00,31.1,21.1,29.85,NNW,338,0.2,0.9,66,0.00,,,0.00,WUHU216HW,2013-02-26 10:49:00,
2013-02-26 05:54:00,31.1,21.4,29.85,NW,315,0.0,0.2,67,0.00,,,0.00,WUHU216HW,2013-02-26 10:54:00,
2013-02-26 05:59:00,31.1,21.1,29.85,NW,315,0.0,0.2,66,0.00,,,0.00,WUHU216HW,2013-02-26 10:59:00,
2013-02-26 06:04:00,31.3,21.2,29.84,NW,315,0.0,0.0,66,0.00,,,0.00,WUHU216HW,2013-02-26 11:04:00,
2013-02-26 06:09:00,31.3,21.2,29.84,WNW,293,0.0,1.1,66,0.00,,,0.00,WUHU216HW,2013-02-26 11:09:00,
2013-02-26 06:14:00,31.3,21.2,29.85,WNW,293,0.0,1.1,66,0.00,,,0.00,WUHU216HW,2013-02-26 11:14:00,
2013-02-26 06:19:00,31.3,21.2,29.84,WNW,293,0.0,0.0,66,0.00,,,0.00,WUHU216HW,2013-02-26 11:19:00,
2013-02-26 06:24:00,31.3,21.2,29.84,West,270,0.0,0.0,66,0.00,,,0.00,WUHU216HW,2013-02-26 11:24:00,
2013-02-26 06:29:00,31.3,21.2,29.84,SW,225,0.0,0.7,66,0.00,,,0.00,WUHU216HW,2013-02-26 11:29:00,
2013-02-26 06:34:00,31.3,21.6,29.84,SE,135,0.0,0.7,67,0.00,,,0.00,WUHU216HW,2013-02-26 11:34:00,
2013-02-26 06:39:00,31.3,22.0,29.84,WNW,293,0.9,1.1,68,0.00,,,0.00,WUHU216HW,2013-02-26 11:39:00,
2013-02-26 06:44:00,31.3,22.0,29.84,NE,45,0.0,1.1,68,0.00,,,0.00,WUHU216HW,2013-02-26 11:44:00,
2013-02-26 06:49:00,31.1,21.8,29.83,WSW,248,0.0,1.1,68,0.00,,,0.00,WUHU216HW,2013-02-26 11:49:00,
2013-02-26 06:54:00,31.1,21.8,29.83,WSW,248,0.0,0.9,68,0.00,,,0.00,WUHU216HW,2013-02-26 11:54:00,
2013-02-26 06:59:00,31.3,22.3,29.82,NW,315,0.0,0.0,69,0.00,,,0.00,WUHU216HW,2013-02-26 11:59:00,
2013-02-26 07:04:00,31.3,22.0,29.82,WNW,293,0.2,1.1,68,0.00,,,0.00,WUHU216HW,2013-02-26 12:04:00,
2013-02-26 07:09:00,31.3,22.0,29.83,WSW,248,0.0,1.1,68,0.00,,,0.00,WUHU216HW,2013-02-26 12:09:00,
2013-02-26 07:14:00,31.3,22.0,29.83,ESE,113,0.0,0.4,68,0.00,,,0.00,WUHU216HW,2013-02-26 12:14:00,
2013-02-26 07:19:00,31.3,22.0,29.84,WSW,248,0.4,0.4,68,0.00,,,0.00,WUHU216HW,2013-02-26 12:19:00,
2013-02-26 07:24:00,31.3,21.6,29.83,North,0,1.1,2.7,67,0.00,,,0.00,WUHU216HW,2013-02-26 12:24:00,
2013-02-26 07:29:00,31.3,21.6,29.83,WNW,293,0.0,2.7,67,0.00,,,0.00,WUHU216HW,2013-02-26 12:29:00,
2013-02-26 07:34:00,31.5,21.8,29.84,North,0,0.0,1.1,67,0.00,,,0.00,WUHU216HW,2013-02-26 12:34:00,
2013-02-26 07:39:00,31.5,21.4,29.84,ESE,113,0.4,0.9,66,0.00,,,0.00,WUHU216HW,2013-02-26 12:39:00,
2013-02-26 07:44:00,31.7,21.6,29.84,ESE,113,0.0,1.1,66,0.00,,,0.00,WUHU216HW,2013-02-26 12:44:00,
2013-02-26 07:49:00,31.9,21.8,29.84,ESE,113,0.4,1.1,66,0.00,,,0.00,WUHU216HW,2013-02-26 12:49:00,
2013-02-26 07:54:00,31.9,22.1,29.83,SSE,158,0.0,2.2,67,0.00,,,0.00,WUHU216HW,2013-02-26 12:54:00,
2013-02-26 07:59:00,32.0,22.0,29.83,SSE,158,0.0,2.2,66,0.00,,,0.00,WUHU216HW,2013-02-26 12:59:00,
2013-02-26 08:04:00,32.0,22.0,29.83,SSE,158,0.4,0.4,66,0.00,,,0.00,WUHU216HW,2013-02-26 13:04:00,
2013-02-26 08:09:00,32.0,22.3,29.83,SE,135,0.0,0.9,67,0.00,,,0.00,WUHU216HW,2013-02-26 13:09:00,
2013-02-26 08:14:00,32.0,22.3,29.84,SE,135,0.4,2.0,67,0.00,,,0.00,WUHU216HW,2013-02-26 13:14:00,
2013-02-26 08:19:00,32.2,22.5,29.83,ESE,113,0.7,2.0,67,0.00,,,0.00,WUHU216HW,2013-02-26 13:19:00,
2013-02-26 08:24:00,32.0,22.7,29.84,ESE,113,0.4,0.7,68,0.00,,,0.00,WUHU216HW,2013-02-26 13:24:00,
2013-02-26 08:29:00,32.0,22.7,29.83,ESE,113,0.0,0.7,68,0.00,,,0.00,WUHU216HW,2013-02-26 13:29:00,
2013-02-26 08:34:00,32.0,23.4,29.83,ESE,113,0.2,0.7,70,0.00,,,0.00,WUHU216HW,2013-02-26 13:34:00,
2013-02-26 08:39:00,31.7,23.0,29.83,WNW,293,0.0,0.4,70,0.00,,,0.00,WUHU216HW,2013-02-26 13:39:00,
2013-02-26 08:44:00,31.7,23.0,29.83,WNW,293,0.2,0.4,70,0.00,,,0.00,WUHU216HW,2013-02-26 13:44:00,
2013-02-26 08:49:00,31.7,23.4,29.83,WNW,293,0.0,0.4,71,0.00,,,0.00,WUHU216HW,2013-02-26 13:49:00,
2013-02-26 08:54:00,31.5,23.5,29.82,North,0,0.0,0.2,72,0.00,,,0.00,WUHU216HW,2013-02-26 13:54:00,
2013-02-26 08:59:00,31.5,23.5,29.82,SSE,158,0.0,0.2,72,0.00,,,0.00,WUHU216HW,2013-02-26 13:59:00,
2013-02-26 09:04:00,31.5,23.9,29.81,NNW,338,0.0,0.7,73,0.00,,,0.00,WUHU216HW,2013-02-26 14:04:00,
2013-02-26 09:09:00,31.5,23.9,29.81,NNW,338,0.0,0.7,73,0.00,,,0.00,WUHU216HW,2013-02-26 14:09:00,
2013-02-26 09:14:00,31.5,23.9,29.81,West,270,0.0,0.2,73,0.00,,,0.00,WUHU216HW,2013-02-26 14:14:00,
2013-02-26 09:19:00,31.5,24.1,29.80,NE,45,0.4,1.3,74,0.00,,,0.00,WUHU216HW,2013-02-26 14:19:00,
2013-02-26 09:24:00,31.5,24.5,29.81,East,90,0.4,1.3,75,0.00,,,0.00,WUHU216HW,2013-02-26 14:24:00,
2013-02-26 09:29:00,31.5,24.1,29.81,East,90,0.0,1.1,74,0.00,,,0.00,WUHU216HW,2013-02-26 14:29:00,
2013-02-26 09:34:00,31.5,24.1,29.80,SE,135,0.0,0.7,74,0.00,,,0.00,WUHU216HW,2013-02-26 14:34:00,
2013-02-26 09:39:00,31.5,24.1,29.80,ESE,113,0.4,1.6,74,0.00,,,0.00,WUHU216HW,2013-02-26 14:39:00,
2013-02-26 09:44:00,31.3,24.3,29.79,NNE,23,0.4,1.8,75,0.00,,,0.00,WUHU216HW,2013-02-26 14:44:00,
2013-02-26 09:49:00,31.5,24.9,29.79,ESE,113,0.2,2.0,76,0.00,,,0.00,WUHU216HW,2013-02-26 14:49:00,
2013-02-26 09:54:00,31.5,24.9,29.79,NE,45,1.1,2.0,76,0.00,,,0.00,WUHU216HW,2013-02-26 14:54:00,
2013-02-26 09:59:00,31.3,25.3,29.79,WSW,248,0.4,2.0,78,0.00,,,0.00,WUHU216HW,2013-02-26 14:59:00,
2013-02-26 10:04:00,31.3,25.3,29.79,WSW,248,1.1,1.6,78,0.00,,,0.00,WUHU216HW,2013-02-26 15:04:00,
2013-02-26 10:09:00,31.3,25.6,29.78,West,270,0.2,1.1,79,0.00,,,0.00,WUHU216HW,2013-02-26 15:09:00,
2013-02-26 10:14:00,31.5,25.7,29.78,WSW,248,0.4,1.1,79,0.00,,,0.00,WUHU216HW,2013-02-26 15:14:00,
2013-02-26 10:19:00,31.7,25.9,29.78,South,180,1.1,1.1,79,0.01,,,0.00,WUHU216HW,2013-02-26 15:19:00,
2013-02-26 10:24:00,31.7,25.7,29.78,NE,45,1.1,1.8,78,0.01,,,0.00,WUHU216HW,2013-02-26 15:24:00,
2013-02-26 10:29:00,31.5,25.7,29.78,West,270,0.4,1.8,79,0.01,,,0.00,WUHU216HW,2013-02-26 15:29:00,
2013-02-26 10:34:00,31.7,26.3,29.78,NW,315,1.1,1.1,80,0.01,,,0.00,WUHU216HW,2013-02-26 15:34:00,
2013-02-26 10:39:00,31.7,25.9,29.78,NNW,338,0.9,1.8,79,0.01,,,0.00,WUHU216HW,2013-02-26 15:39:00,
2013-02-26 10:44:00,31.7,25.9,29.78,NNW,338,0.4,1.8,79,0.01,,,0.00,WUHU216HW,2013-02-26 15:44:00,
2013-02-26 10:49:00,31.7,26.3,29.78,NNW,338,0.2,1.1,80,0.01,,,0.00,WUHU216HW,2013-02-26 15:49:00,
2013-02-26 10:54:00,31.9,26.1,29.78,West,270,0.0,0.9,79,0.01,,,0.00,WUHU216HW,2013-02-26 15:54:00,
2013-02-26 10:59:00,31.9,26.1,29.77,NW,315,0.0,0.9,79,0.01,,,0.00,WUHU216HW,2013-02-26 15:59:00,
2013-02-26 11:04:00,31.9,26.7,29.77,North,0,0.0,0.9,81,0.01,,,0.00,WUHU216HW,2013-02-26 16:04:00,
2013-02-26 11:09:00,31.9,26.5,29.76,NW,315,0.0,0.0,80,0.01,,,0.00,WUHU216HW,2013-02-26 16:09:00,
2013-02-26 11:14:00,31.9,27.0,29.76,NW,315,0.0,0.0,82,0.01,,,0.00,WUHU216HW,2013-02-26 16:14:00,
2013-02-26 11:19:00,32.0,27.2,29.76,NNW,338,0.0,0.0,82,0.00,,,0.00,WUHU216HW,2013-02-26 16:19:00,
2013-02-26 11:24:00,32.0,27.2,29.76,WSW,248,0.0,0.0,82,0.00,,,0.00,WUHU216HW,2013-02-26 16:24:00,
2013-02-26 11:29:00,32.0,27.6,29.75,SE,135,0.0,0.0,83,0.00,,,0.00,WUHU216HW,2013-02-26 16:29:00,
2013-02-26 11:34:00,32.2,27.6,29.74,ESE,113,0.0,0.0,83,0.00,,,0.00,WUHU216HW,2013-02-26 16:34:00,
2013-02-26 11:39:00,32.2,27.6,29.73,NNE,23,0.0,0.0,83,0.00,,,0.00,WUHU216HW,2013-02-26 16:39:00,
2013-02-26 11:44:00,32.4,27.8,29.73,NNE,23,0.0,0.0,83,0.00,,,0.00,WUHU216HW,2013-02-26 16:44:00,
2013-02-26 11:49:00,32.4,27.8,29.72,ENE,68,0.0,0.0,83,0.00,,,0.00,WUHU216HW,2013-02-26 16:49:00,
2013-02-26 11:54:00,32.6,28.3,29.72,SW,225,0.0,0.0,84,0.00,,,0.00,WUHU216HW,2013-02-26 16:54:00,
2013-02-26 11:59:00,32.6,28.0,29.71,SW,225,0.0,0.0,83,0.00,,,0.00,WUHU216HW,2013-02-26 16:59:00,
2013-02-26 12:04:00,32.8,28.4,29.71,NNW,338,0.0,0.0,84,0.00,,,0.00,WUHU216HW,2013-02-26 17:04:00,
2013-02-26 12:09:00,32.8,28.2,29.70,SE,135,0.0,0.0,83,0.00,,,0.00,WUHU216HW,2013-02-26 17:09:00,
2013-02-26 12:14:00,32.8,28.4,29.70,East,90,0.0,0.0,84,0.00,,,0.00,WUHU216HW,2013-02-26 17:14:00,
2013-02-26 12:19:00,32.9,28.6,29.69,SW,225,0.0,0.0,84,0.00,,,0.00,WUHU216HW,2013-02-26 17:19:00,
2013-02-26 12:24:00,32.9,29.2,29.69,South,180,0.0,0.0,86,0.00,,,0.00,WUHU216HW,2013-02-26 17:24:00,
2013-02-26 12:29:00,32.9,29.2,29.68,SSW,203,0.0,0.0,86,0.00,,,0.00,WUHU216HW,2013-02-26 17:29:00,
2013-02-26 12:34:00,32.9,29.2,29.68,ESE,113,0.0,0.0,86,0.00,,,0.00,WUHU216HW,2013-02-26 17:34:00,
2013-02-26 12:39:00,33.1,29.3,29.68,ENE,68,0.0,0.0,86,0.00,,,0.00,WUHU216HW,2013-02-26 17:39:00,
2013-02-26 12:44:00,33.1,29.6,29.67,ESE,113,0.0,0.0,87,0.00,,,0.00,WUHU216HW,2013-02-26 17:44:00,
2013-02-26 12:49:00,33.1,29.3,29.65,NE,45,0.0,0.0,86,0.00,,,0.00,WUHU216HW,2013-02-26 17:49:00,
2013-02-26 12:54:00,33.3,29.8,29.65,ENE,68,0.0,0.0,87,0.00,,,0.00,WUHU216HW,2013-02-26 17:54:00,
2013-02-26 12:59:00,33.5,30.0,29.66,ENE,68,0.0,0.0,87,0.00,,,0.00,WUHU216HW,2013-02-26 17:59:00,
2013-02-26 13:04:00,33.5,30.0,29.65,West,270,0.0,0.0,87,0.00,,,0.00,WUHU216HW,2013-02-26 18:04:00,
2013-02-26 13:09:00,33.5,30.0,29.64,South,180,0.0,0.0,87,0.00,,,0.00,WUHU216HW,2013-02-26 18:09:00,
2013-02-26 13:14:00,33.5,29.7,29.63,SW,225,0.0,0.0,86,0.00,,,0.00,WUHU216HW,2013-02-26 18:14:00,
2013-02-26 13:19:00,33.7,29.8,29.63,WNW,293,0.0,0.0,86,0.00,,,0.00,WUHU216HW,2013-02-26 18:19:00,
2013-02-26 13:24:00,33.7,30.2,29.63,ESE,113,0.0,0.0,87,0.00,,,0.00,WUHU216HW,2013-02-26 18:24:00,
2013-02-26 13:29:00,33.7,29.8,29.62,NE,45,0.0,0.0,86,0.00,,,0.00,WUHU216HW,2013-02-26 18:29:00,
2013-02-26 13:34:00,33.7,30.2,29.62,WNW,293,0.0,0.0,87,0.00,,,0.00,WUHU216HW,2013-02-26 18:34:00,
2013-02-26 13:39:00,33.8,30.2,29.61,East,90,0.0,0.0,87,0.00,,,0.00,WUHU216HW,2013-02-26 18:39:00,
2013-02-26 13:44:00,33.8,30.2,29.61,NNE,23,0.0,0.0,87,0.00,,,0.00,WUHU216HW,2013-02-26 18:44:00,
2013-02-26 13:49:00,33.8,30.6,29.61,WSW,248,0.0,0.0,88,0.00,,,0.00,WUHU216HW,2013-02-26 18:49:00,
2013-02-26 13:54:00,33.8,30.2,29.61,South,180,0.0,0.0,87,0.00,,,0.00,WUHU216HW,2013-02-26 18:54:00,
2013-02-26 13:59:00,34.0,30.8,29.60,NE,45,0.0,0.0,88,0.00,,,0.00,WUHU216HW,2013-02-26 18:59:00,
2013-02-26 14:04:00,34.0,30.8,29.59,NNW,338,0.0,0.0,88,0.00,,,0.00,WUHU216HW,2013-02-26 19:04:00,
2013-02-26 14:09:00,34.2,31.2,29.59,SE,135,0.0,0.0,89,0.00,,,0.00,WUHU216HW,2013-02-26 19:09:00,
2013-02-26 14:14:00,34.2,31.0,29.59,East,90,0.0,0.0,88,0.00,,,0.00,WUHU216HW,2013-02-26 19:14:00,
2013-02-26 14:19:00,34.2,31.2,29.58,NE,45,0.0,0.0,89,0.00,,,0.00,WUHU216HW,2013-02-26 19:19:00,
2013-02-26 14:24:00,34.2,31.2,29.58,East,90,0.0,0.0,89,0.00,,,0.00,WUHU216HW,2013-02-26 19:24:00,
2013-02-26 14:29:00,34.2,31.2,29.57,ENE,68,0.0,0.0,89,0.00,,,0.00,WUHU216HW,2013-02-26 19:29:00,
2013-02-26 14:34:00,34.4,31.4,29.56,WNW,293,0.0,0.0,89,0.00,,,0.00,WUHU216HW,2013-02-26 19:34:00,
2013-02-26 14:39:00,34.4,31.2,29.56,NW,315,0.0,0.0,88,0.00,,,0.00,WUHU216HW,2013-02-26 19:39:00,
2013-02-26 14:44:00,34.4,31.4,29.55,SE,135,0.0,0.0,89,0.00,,,0.00,WUHU216HW,2013-02-26 19:44:00,
2013-02-26 14:49:00,34.6,31.9,29.55,West,270,0.0,0.0,90,0.00,,,0.00,WUHU216HW,2013-02-26 19:49:00,
2013-02-26 14:54:00,34.7,31.8,29.55,ESE,113,0.0,0.0,89,0.00,,,0.00,WUHU216HW,2013-02-26 19:54:00,
2013-02-26 14:59:00,34.7,31.8,29.55,ESE,113,0.0,0.0,89,0.00,,,0.00,WUHU216HW,2013-02-26 19:59:00,
2013-02-26 15:04:00,34.9,32.0,29.54,NE,45,0.0,0.0,89,0.00,,,0.00,WUHU216HW,2013-02-26 20:04:00,
2013-02-26 15:09:00,35.1,32.4,29.54,NNW,338,0.0,0.0,90,0.00,,,0.00,WUHU216HW,2013-02-26 20:09:00,
2013-02-26 15:14:00,35.3,32.6,29.53,East,90,0.0,0.0,90,0.01,,,0.00,WUHU216HW,2013-02-26 20:14:00,
2013-02-26 15:19:00,35.1,32.1,29.53,SE,135,0.0,0.0,89,0.01,,,0.00,WUHU216HW,2013-02-26 20:19:00,
2013-02-26 15:24:00,35.5,32.8,29.53,ENE,68,0.0,0.0,90,0.01,,,0.00,WUHU216HW,2013-02-26 20:24:00,
2013-02-26 15:29:00,35.6,32.9,29.52,ENE,68,0.0,0.0,90,0.02,,,0.00,WUHU216HW,2013-02-26 20:29:00,
2013-02-26 15:34:00,35.8,33.1,29.52,West,270,0.0,0.0,90,0.02,,,0.00,WUHU216HW,2013-02-26 20:34:00,
2013-02-26 15:39:00,36.2,33.5,29.51,SSE,158,1.1,3.4,90,0.02,,,0.00,WUHU216HW,2013-02-26 20:39:00,
2013-02-26 15:44:00,36.2,33.2,29.50,ESE,113,0.4,3.4,89,0.02,,,0.00,WUHU216HW,2013-02-26 20:44:00,
2013-02-26 15:49:00,36.2,33.5,29.50,NW,315,1.1,5.8,90,0.02,,,0.00,WUHU216HW,2013-02-26 20:49:00,
2013-02-26 15:54:00,36.4,33.7,29.50,SE,135,3.1,5.8,90,0.02,,,0.00,WUHU216HW,2013-02-26 20:54:00,
2013-02-26 15:59:00,36.5,33.8,29.50,South,180,0.7,4.3,90,0.02,,,0.00,WUHU216HW,2013-02-26 20:59:00,
2013-02-26 16:04:00,36.5,33.8,29.49,SSW,203,0.7,3.6,90,0.02,,,0.00,WUHU216HW,2013-02-26 21:04:00,
2013-02-26 16:09:00,36.7,34.0,29.48,South,180,2.2,4.3,90,0.01,,,0.00,WUHU216HW,2013-02-26 21:09:00,
2013-02-26 16:14:00,36.9,34.2,29.48,SW,225,2.2,4.3,90,0.01,,,0.00,WUHU216HW,2013-02-26 21:14:00,
2013-02-26 16:19:00,36.7,34.3,29.47,ENE,68,2.7,5.4,91,0.01,,,0.00,WUHU216HW,2013-02-26 21:19:00,
2013-02-26 16:24:00,36.7,34.3,29.48,SE,135,0.7,5.4,91,0.00,,,0.00,WUHU216HW,2013-02-26 21:24:00,
2013-02-26 16:29:00,37.1,34.7,29.48,ENE,68,2.0,3.6,91,0.01,,,0.00,WUHU216HW,2013-02-26 21:29:00,
2013-02-26 16:34:00,37.3,34.8,29.49,WSW,248,0.2,6.5,91,0.01,,,0.00,WUHU216HW,2013-02-26 21:34:00,
2013-02-26 16:39:00,37.4,34.7,29.49,NE,45,0.4,6.5,90,0.02,,,0.00,WUHU216HW,2013-02-26 21:39:00,
2013-02-26 16:44:00,37.4,35.0,29.48,ENE,68,0.9,3.1,91,0.03,,,0.00,WUHU216HW,2013-02-26 21:44:00,
2013-02-26 16:49:00,37.6,35.2,29.48,ENE,68,3.4,3.4,91,0.03,,,0.00,WUHU216HW,2013-02-26 21:49:00,
2013-02-26 16:54:00,37.4,35.0,29.47,ESE,113,0.9,3.8,91,0.03,,,0.00,WUHU216HW,2013-02-26 21:54:00,
2013-02-26 16:59:00,37.6,35.2,29.47,SSE,158,1.6,3.8,91,0.03,,,0.00,WUHU216HW,2013-02-26 21:59:00,
2013-02-26 17:04:00,37.6,35.2,29.47,East,90,1.1,2.5,91,0.04,,,0.00,WUHU216HW,2013-02-26 22:04:00,
2013-02-26 17:09:00,37.6,35.2,29.49,WSW,248,0.9,2.5,91,0.04,,,0.00,WUHU216HW,2013-02-26 22:09:00,
2013-02-26 17:14:00,37.6,35.2,29.51,SW,225,1.1,4.0,91,0.05,,,0.00,WUHU216HW,2013-02-26 22:14:00,
2013-02-26 17:19:00,37.6,35.2,29.51,West,270,0.4,4.0,91,0.06,,,0.00,WUHU216HW,2013-02-26 22:19:00,
2013-02-26 17:24:00,37.6,35.2,29.50,ESE,113,0.4,2.2,91,0.06,,,0.00,WUHU216HW,2013-02-26 22:24:00,
2013-02-26 17:29:00,37.6,34.9,29.50,ESE,113,0.2,1.8,90,0.06,,,0.00,WUHU216HW,2013-02-26 22:29:00,
2013-02-26 17:34:00,37.3,34.6,29.50,SSW,203,0.0,1.1,90,0.06,,,0.00,WUHU216HW,2013-02-26 22:34:00,
2013-02-26 17:39:00,37.4,35.0,29.48,WSW,248,0.4,3.4,91,0.05,,,0.00,WUHU216HW,2013-02-26 22:39:00,
2013-02-26 17:44:00,37.4,35.0,29.48,West,270,0.4,3.4,91,0.04,,,0.00,WUHU216HW,2013-02-26 22:44:00,
2013-02-26 17:49:00,37.4,35.0,29.49,WSW,248,0.7,2.5,91,0.04,,,0.00,WUHU216HW,2013-02-26 22:49:00,
2013-02-26 17:54:00,37.6,35.5,29.49,NW,315,1.8,3.1,92,0.04,,,0.00,WUHU216HW,2013-02-26 22:54:00,
2013-02-26 17:59:00,37.8,35.4,29.50,SW,225,0.0,3.1,91,0.04,,,0.00,WUHU216HW,2013-02-26 22:59:00,
2013-02-26 18:04:00,37.6,34.9,29.50,North,0,0.0,1.8,90,0.03,,,0.00,WUHU216HW,2013-02-26 23:04:00,
2013-02-26 18:09:00,37.6,34.9,29.49,NNW,338,0.4,3.4,90,0.03,,,0.00,WUHU216HW,2013-02-26 23:09:00,
2013-02-26 18:14:00,37.4,34.7,29.49,ESE,113,0.7,3.4,90,0.02,,,0.00,WUHU216HW,2013-02-26 23:14:00,
2013-02-26 18:19:00,37.3,34.8,29.49,SE,135,1.1,3.8,91,0.01,,,0.00,WUHU216HW,2013-02-26 23:19:00,
2013-02-26 18:24:00,37.3,34.6,29.49,ENE,68,0.9,3.8,90,0.00,,,0.00,WUHU216HW,2013-02-26 23:24:00,
2013-02-26 18:29:00,37.1,34.4,29.50,NNW,338,0.0,2.7,90,0.00,,,0.00,WUHU216HW,2013-02-26 23:29:00,
2013-02-26 18:34:00,37.1,34.4,29.50,NE,45,1.6,4.3,90,0.00,,,0.00,WUHU216HW,2013-02-26 23:34:00,
2013-02-26 18:39:00,37.1,34.4,29.50,ESE,113,0.0,4.3,90,0.00,,,0.00,WUHU216HW,2013-02-26 23:39:00,
2013-02-26 18:44:00,37.1,34.4,29.50,ESE,113,0.0,2.7,90,0.00,,,0.00,WUHU216HW,2013-02-26 23:44:00,
2013-02-26 18:49:00,37.1,34.4,29.50,NNE,23,0.9,1.1,90,0.00,,,0.00,WUHU216HW,2013-02-26 23:49:00,
2013-02-26 18:54:00,37.1,34.4,29.49,SE,135,0.4,1.1,90,0.00,,,0.00,WUHU216HW,2013-02-26 23:54:00,
2013-02-26 18:59:00,37.1,34.4,29.49,SE,135,1.1,1.6,90,0.00,,,0.00,WUHU216HW,2013-02-26 23:59:00,
2013-02-26 19:04:00,37.1,34.4,29.48,SW,225,0.0,1.6,90,0.00,,,0.00,WUHU216HW,2013-02-27 00:04:00,
2013-02-26 19:09:00,37.3,34.6,29.48,NW,315,0.0,1.1,90,0.00,,,0.00,WUHU216HW,2013-02-27 00:09:00,
2013-02-26 19:14:00,37.1,34.4,29.48,West,270,0.4,1.1,90,0.00,,,0.00,WUHU216HW,2013-02-27 00:14:00,
2013-02-26 19:19:00,37.4,34.7,29.48,SW,225,0.4,1.1,90,0.00,,,0.00,WUHU216HW,2013-02-27 00:19:00,
2013-02-26 19:24:00,37.4,34.7,29.48,WSW,248,0.0,1.1,90,0.00,,,0.00,WUHU216HW,2013-02-27 00:24:00,
2013-02-26 19:29:00,37.4,34.7,29.48,WSW,248,1.1,1.1,90,0.00,,,0.00,WUHU216HW,2013-02-27 00:29:00,
2013-02-26 19:34:00,37.4,34.7,29.47,West,270,0.2,1.1,90,0.00,,,0.00,WUHU216HW,2013-02-27 00:34:00,
2013-02-26 19:39:00,37.4,34.7,29.47,ESE,113,0.7,2.2,90,0.00,,,0.00,WUHU216HW,2013-02-27 00:39:00,
2013-02-26 19:44:00,37.3,34.6,29.47,ESE,113,0.0,2.2,90,0.00,,,0.00,WUHU216HW,2013-02-27 00:44:00,
2013-02-26 19:49:00,37.4,34.7,29.48,ESE,113,0.4,1.1,90,0.00,,,0.00,WUHU216HW,2013-02-27 00:49:00,
2013-02-26 19:54:00,37.4,34.7,29.48,ESE,113,0.0,0.7,90,0.00,,,0.00,WUHU216HW,2013-02-27 00:54:00,
2013-02-26 19:59:00,37.6,34.9,29.48,ESE,113,0.0,0.9,90,0.00,,,0.00,WUHU216HW,2013-02-27 00:59:00,
2013-02-26 20:04:00,37.6,35.2,29.48,ESE,113,0.0,1.1,91,0.00,,,0.00,WUHU216HW,2013-02-27 01:04:00,
2013-02-26 20:09:00,37.6,34.9,29.48,ESE,113,0.2,1.1,90,0.00,,,0.00,WUHU216HW,2013-02-27 01:09:00,
2013-02-26 20:14:00,37.6,34.9,29.48,ESE,113,1.6,1.6,90,0.00,,,0.00,WUHU216HW,2013-02-27 01:14:00,
2013-02-26 20:19:00,37.6,34.9,29.48,NW,315,0.7,1.6,90,0.00,,,0.00,WUHU216HW,2013-02-27 01:19:00,
2013-02-26 20:24:00,37.6,35.2,29.48,NW,315,0.0,1.6,91,0.00,,,0.00,WUHU216HW,2013-02-27 01:24:00,
2013-02-26 20:29:00,37.6,35.2,29.48,NE,45,0.0,0.7,91,0.00,,,0.00,WUHU216HW,2013-02-27 01:29:00,
2013-02-26 20:34:00,37.6,34.9,29.48,NNE,23,0.0,0.7,90,0.00,,,0.00,WUHU216HW,2013-02-27 01:34:00,
2013-02-26 20:39:00,37.8,35.1,29.49,NNW,338,0.0,0.4,90,0.00,,,0.00,WUHU216HW,2013-02-27 01:39:00,
2013-02-26 20:44:00,37.8,35.1,29.49,NNW,338,0.7,0.9,90,0.00,,,0.00,WUHU216HW,2013-02-27 01:44:00,
2013-02-26 20:49:00,37.6,35.2,29.49,NW,315,0.4,0.9,91,0.00,,,0.00,WUHU216HW,2013-02-27 01:49:00,
2013-02-26 20:54:00,37.6,34.9,29.48,NNW,338,0.0,0.7,90,0.00,,,0.00,WUHU216HW,2013-02-27 01:54:00,
2013-02-26 20:59:00,37.4,35.0,29.47,NNW,338,0.0,0.4,91,0.00,,,0.00,WUHU216HW,2013-02-27 01:59:00,
2013-02-26 21:04:00,37.4,35.0,29.49,WSW,248,0.7,0.9,91,0.00,,,0.00,WUHU216HW,2013-02-27 02:04:00,
2013-02-26 21:09:00,37.4,35.0,29.48,WNW,293,0.0,0.9,91,0.00,,,0.00,WUHU216HW,2013-02-27 02:09:00,
2013-02-26 21:14:00,37.4,35.0,29.48,WNW,293,0.0,0.7,91,0.00,,,0.00,WUHU216HW,2013-02-27 02:14:00,
2013-02-26 21:19:00,37.4,35.0,29.47,WNW,293,0.7,0.7,91,0.00,,,0.00,WUHU216HW,2013-02-27 02:19:00,
2013-02-26 21:24:00,37.4,34.7,29.47,NNW,338,0.0,0.9,90,0.00,,,0.00,WUHU216HW,2013-02-27 02:24:00,
2013-02-26 21:29:00,37.4,35.0,29.47,NNW,338,0.0,0.9,91,0.00,,,0.00,WUHU216HW,2013-02-27 02:29:00,
2013-02-26 21:34:00,37.4,34.7,29.47,NNW,338,0.0,0.7,90,0.00,,,0.00,WUHU216HW,2013-02-27 02:34:00,
2013-02-26 21:39:00,37.4,35.0,29.47,NNW,338,0.0,0.0,91,0.00,,,0.00,WUHU216HW,2013-02-27 02:39:00,
2013-02-26 21:44:00,37.4,34.7,29.47,NNW,338,0.0,0.0,90,0.00,,,0.00,WUHU216HW,2013-02-27 02:44:00,
2013-02-26 21:49:00,37.3,34.6,29.47,NE,45,0.0,0.4,90,0.00,,,0.00,WUHU216HW,2013-02-27 02:49:00,
2013-02-26 21:54:00,37.3,34.6,29.47,SSW,203,0.0,1.1,90,0.00,,,0.00,WUHU216HW,2013-02-27 02:54:00,
2013-02-26 21:59:00,37.4,34.7,29.47,SSW,203,0.0,1.1,90,0.00,,,0.00,WUHU216HW,2013-02-27 02:59:00,
2013-02-26 22:04:00,37.4,34.7,29.47,SW,225,0.0,0.2,90,0.00,,,0.00,WUHU216HW,2013-02-27 03:04:00,
2013-02-26 22:09:00,37.4,34.7,29.48,WSW,248,0.0,0.0,90,0.00,,,0.00,WUHU216HW,2013-02-27 03:09:00,
2013-02-26 22:14:00,37.4,35.0,29.48,WSW,248,0.0,0.0,91,0.00,,,0.00,WUHU216HW,2013-02-27 03:14:00,
2013-02-26 22:19:00,37.4,35.0,29.47,WSW,248,0.0,0.0,91,0.00,,,0.00,WUHU216HW,2013-02-27 03:19:00,
2013-02-26 22:24:00,37.4,35.0,29.47,SW,225,0.2,0.7,91,0.00,,,0.00,WUHU216HW,2013-02-27 03:24:00,
2013-02-26 22:29:00,37.4,34.7,29.47,SW,225,0.0,0.7,90,0.00,,,0.00,WUHU216HW,2013-02-27 03:29:00,
2013-02-26 22:34:00,37.3,34.6,29.47,SW,225,0.0,0.2,90,0.00,,,0.00,WUHU216HW,2013-02-27 03:34:00,
2013-02-26 22:39:00,37.4,34.7,29.47,SW,225,0.4,0.4,90,0.00,,,0.00,WUHU216HW,2013-02-27 03:39:00,
2013-02-26 22:44:00,37.6,34.9,29.47,WSW,248,0.0,0.4,90,0.00,,,0.00,WUHU216HW,2013-02-27 03:44:00,
2013-02-26 22:49:00,37.6,34.9,29.47,WSW,248,0.0,0.4,90,0.00,,,0.00,WUHU216HW,2013-02-27 03:49:00,
2013-02-26 22:54:00,37.6,34.9,29.47,WSW,248,0.0,0.0,90,0.00,,,0.00,WUHU216HW,2013-02-27 03:54:00,
2013-02-26 22:59:00,37.6,34.9,29.47,WSW,248,0.0,0.0,90,0.00,,,0.00,WUHU216HW,2013-02-27 03:59:00,
2013-02-26 23:04:00,37.6,34.9,29.47,WSW,248,0.0,0.0,90,0.00,,,0.00,WUHU216HW,2013-02-27 04:04:00,
2013-02-26 23:09:00,37.6,34.9,29.46,WSW,248,0.0,0.0,90,0.00,,,0.00,WUHU216HW,2013-02-27 04:09:00,
2013-02-26 23:14:00,37.4,34.7,29.46,WSW,248,0.0,0.0,90,0.00,,,0.00,WUHU216HW,2013-02-27 04:14:00,
2013-02-26 23:19:00,37.4,34.7,29.46,WSW,248,0.0,0.0,90,0.00,,,0.00,WUHU216HW,2013-02-27 04:19:00,
2013-02-26 23:24:00,37.6,34.9,29.45,WSW,248,0.0,0.0,90,0.01,,,0.00,WUHU216HW,2013-02-27 04:24:00,
2013-02-26 23:29:00,37.6,34.9,29.45,WSW,248,0.0,0.0,90,0.01,,,0.00,WUHU216HW,2013-02-27 04:29:00,
2013-02-26 23:34:00,37.6,34.9,29.45,WSW,248,0.0,0.0,90,0.01,,,0.00,WUHU216HW,2013-02-27 04:34:00,
2013-02-26 23:39:00,37.8,35.1,29.46,WSW,248,0.0,0.0,90,0.01,,,0.00,WUHU216HW,2013-02-27 04:39:00,
2013-02-26 23:44:00,37.8,35.1,29.45,WSW,248,0.0,0.0,90,0.02,,,0.00,WUHU216HW,2013-02-27 04:44:00,
2013-02-26 23:49:00,37.8,35.1,29.45,WSW,248,0.0,0.0,90,0.02,,,0.00,WUHU216HW,2013-02-27 04:49:00,
2013-02-26 23:54:00,37.8,35.1,29.45,WSW,248,0.0,0.4,90,0.02,,,0.00,WUHU216HW,2013-02-27 04:54:00,
2013-02-26 23:59:00,37.8,35.1,29.45,WSW,248,0.0,0.4,90,0.02,,,0.00,WUHU216HW,2013-02-27 04:59:00,